When you browse on this site, cookies collect data to enhance your experience and personalize the content and advertising you see.
Visit our Privacy Policy to learn more. By continuing to use the site, you agree to this use of cookies and data.
  • In Switzerland
  • List of Countries
  • For 7 days
  • Water Temperature
  • Weather Map
  • Weather Widgets
  • user-avatar
    Login

    Hourly Weather Encamp

    Today, 20 November, Wednesday

    Time Temperature Precipitation Wind Pressure Humidity
    00:00 -3°C° 0 mm 1 mps 617 mmHg 69%
    01:00 -3°C° 0 mm 1 mps 617 mmHg 67%
    02:00 -3°C° 0 mm 1 mps 616 mmHg 64%
    03:00 -5°C° 0 mm 2 mps 616 mmHg 62%
    04:00 -3°C° 0 mm 1 mps 616 mmHg 59%
    05:00 -3°C° 0 mm 1 mps 616 mmHg 56%
    06:00 -3°C° 0 mm 1 mps 616 mmHg 53%
    07:00 -2°C° 0 mm 1 mps 616 mmHg 50%
    08:00 0°C° 0 mm 1 mps 617 mmHg 47%
    09:00 +1°C° 0 mm 1 mps 617 mmHg 45%
    10:00 +1°C° 0 mm 2 mps 617 mmHg 45%
    11:00 +2°C° 0 mm 2 mps 617 mmHg 45%
    12:00 +3°C° 0 mm 2 mps 618 mmHg 45%
    13:00 +2°C° 0 mm 2 mps 617 mmHg 51%
    14:00 +1°C° 0 mm 2 mps 616 mmHg 56%
    15:00 +1°C° 0 mm 2 mps 615 mmHg 62%
    16:00 -2°C° 0 mm 2 mps 615 mmHg 68%
    17:00 -3°C° 0 mm 2 mps 614 mmHg 74%
    18:00 -5°C° 0 mm 2 mps 613 mmHg 80%
    19:00 -5°C° 0 mm 2 mps 613 mmHg 81%
    20:00 -5°C° 0 mm 2 mps 613 mmHg 81%
    21:00 -5°C° 0 mm 2 mps 613 mmHg 82%
    22:00 -5°C° 0 mm 2 mps 613 mmHg 82%
    23:00 -6°C° 0 mm 2 mps 613 mmHg 83%

    Tomorrow, 21 November, Thursday

    Time Temperature Precipitation Wind Pressure Humidity
    00:00 -6°C° 0 mm 2 mps 613 mmHg 84%
    01:00 -5°C° 0 mm 2 mps 613 mmHg 83%
    02:00 -3°C° 0 mm 1 mps 613 mmHg 82%
    03:00 -2°C° 0 mm 1 mps 613 mmHg 81%
    04:00 -2°C° 0 mm 1 mps 613 mmHg 83%
    05:00 -2°C° 0 mm 1 mps 613 mmHg 85%
    06:00 -2°C° 0 mm 1 mps 613 mmHg 87%
    07:00 -1°C° 0 mm 1 mps 613 mmHg 84%
    08:00 0°C° 0 mm 1 mps 614 mmHg 81%
    09:00 +1°C° 0 mm 1 mps 614 mmHg 78%
    10:00 +2°C° 0 mm 1 mps 614 mmHg 76%
    11:00 +2°C° 0 mm 1 mps 615 mmHg 74%
    12:00 +3°C° 0 mm 1 mps 615 mmHg 72%
    13:00 +3°C° 0 mm 1 mps 614 mmHg 74%
    14:00 +2°C° 0 mm 1 mps 614 mmHg 75%
    15:00 +2°C° 0 mm 1 mps 614 mmHg 77%
    16:00 +1°C° 0 mm 1 mps 614 mmHg 82%
    17:00 -1°C° 0 mm 1 mps 613 mmHg 87%
    18:00 -2°C° 0 mm 1 mps 613 mmHg 92%
    19:00 -2°C° 0 mm 1 mps 613 mmHg 92%
    20:00 -2°C° 0 mm 1 mps 614 mmHg 91%
    21:00 -2°C° 0 mm 1 mps 614 mmHg 91%
    22:00 -2°C° 0 mm 1 mps 614 mmHg 91%
    23:00 -4°C° 0 mm 2 mps 614 mmHg 90%

    Day after tomorrow, 22 November, Friday

    Time Temperature Precipitation Wind Pressure Humidity
    00:00 -4°C° 0 mm 2 mps 613 mmHg 90%
    01:00 -4°C° 0 mm 2 mps 613 mmHg 90%
    02:00 -4°C° 0 mm 2 mps 613 mmHg 89%
    03:00 -4°C° 0 mm 2 mps 612 mmHg 88%
    04:00 -4°C° 0 mm 2 mps 612 mmHg 87%
    05:00 -4°C° 0 mm 2 mps 612 mmHg 85%
    06:00 -4°C° 0 mm 2 mps 612 mmHg 84%
    07:00 -3°C° 0 mm 2 mps 612 mmHg 83%
    08:00 -2°C° 0 mm 3 mps 612 mmHg 83%
    09:00 -1°C° 0 mm 3 mps 612 mmHg 82%
    10:00 -1°C° 0.3 mm 4 mps 611 mmHg 85%
    11:00 -1°C° 0.3 mm 4 mps 611 mmHg 87%
    12:00 -1°C° 0.3 mm 4 mps 610 mmHg 90%
    13:00 -1°C° 0.4 mm 4 mps 610 mmHg 92%
    14:00 -1°C° 0.4 mm 4 mps 609 mmHg 93%
    15:00 -1°C° 0.4 mm 4 mps 608 mmHg 95%
    16:00 -1°C° 2 mm 4 mps 607 mmHg 95%
    17:00 -1°C° 2 mm 4 mps 607 mmHg 96%
    18:00 -1°C° 2 mm 4 mps 606 mmHg 96%
    19:00 -1°C° 3.4 mm 4 mps 605 mmHg 96%
    20:00 -1°C° 3.4 mm 4 mps 605 mmHg 96%
    21:00 0°C° 3.4 mm 3 mps 605 mmHg 95%
    22:00 +1°C° 2.2 mm 3 mps 604 mmHg 96%
    23:00 +1°C° 2.2 mm 3 mps 604 mmHg 97%

    23 November, Saturday

    Time Temperature Precipitation Wind Pressure Humidity
    00:00 +1°C° 2.2 mm 3 mps 604 mmHg 98%
    01:00 0°C° 0.1 mm 3 mps 603 mmHg 97%
    02:00 0°C° 0.1 mm 3 mps 603 mmHg 96%
    03:00 -1°C° 0.1 mm 2 mps 603 mmHg 96%
    04:00 -1°C° 0 mm 2 mps 603 mmHg 95%
    05:00 0°C° 0 mm 1 mps 603 mmHg 95%
    06:00 0°C° 0 mm 1 mps 604 mmHg 95%
    07:00 +1°C° 0.1 mm 1 mps 604 mmHg 94%
    08:00 +1°C° 0.1 mm 1 mps 605 mmHg 94%
    09:00 +2°C° 0.1 mm 1 mps 606 mmHg 93%
    10:00 +3°C° 0.2 mm 1 mps 607 mmHg 92%
    11:00 +3°C° 0.2 mm 1 mps 607 mmHg 91%
    12:00 +4°C° 0.2 mm 1 mps 608 mmHg 91%
    13:00 +4°C° 0.3 mm 1 mps 608 mmHg 92%
    14:00 +3°C° 0.3 mm 1 mps 608 mmHg 94%
    15:00 +3°C° 0.3 mm 1 mps 608 mmHg 96%
    16:00 +2°C° 0.8 mm 1 mps 608 mmHg 96%
    17:00 +2°C° 0.8 mm 1 mps 609 mmHg 96%
    18:00 +1°C° 0.8 mm 1 mps 609 mmHg 97%
    19:00 +1°C° 1.2 mm 1 mps 610 mmHg 97%
    20:00 +1°C° 1.2 mm 1 mps 611 mmHg 97%
    21:00 +1°C° 1.2 mm 1 mps 611 mmHg 97%
    22:00 -2°C° 1 mm 2 mps 611 mmHg 97%
    23:00 -2°C° 1 mm 2 mps 612 mmHg 96%

    24 November, Sunday

    Time Temperature Precipitation Wind Pressure Humidity
    00:00 -2°C° 1 mm 2 mps 612 mmHg 96%
    01:00 -2°C° 1.1 mm 2 mps 612 mmHg 96%
    02:00 -2°C° 1.1 mm 2 mps 612 mmHg 95%
    03:00 -2°C° 1.1 mm 2 mps 613 mmHg 95%
    04:00 -2°C° 1.4 mm 2 mps 613 mmHg 95%
    05:00 -2°C° 1.4 mm 2 mps 614 mmHg 95%
    06:00 -2°C° 1.4 mm 2 mps 614 mmHg 96%
    07:00 -1°C° 1.7 mm 2 mps 615 mmHg 96%
    08:00 -1°C° 1.7 mm 2 mps 616 mmHg 96%
    09:00 +1°C° 1.7 mm 2 mps 617 mmHg 96%
    10:00 +1°C° 0.6 mm 2 mps 617 mmHg 96%
    11:00 +2°C° 0.6 mm 2 mps 617 mmHg 95%
    12:00 +2°C° 0.6 mm 2 mps 618 mmHg 95%
    13:00 +2°C° 0.5 mm 2 mps 618 mmHg 95%
    14:00 +2°C° 0.5 mm 2 mps 618 mmHg 95%
    15:00 +2°C° 0.5 mm 2 mps 618 mmHg 95%
    16:00 +1°C° 0.4 mm 2 mps 619 mmHg 95%
    17:00 +1°C° 0.4 mm 2 mps 619 mmHg 96%
    18:00 -1°C° 0.4 mm 2 mps 619 mmHg 96%
    19:00 -1°C° 0.1 mm 2 mps 620 mmHg 96%
    20:00 -1°C° 0.1 mm 2 mps 620 mmHg 96%
    21:00 -1°C° 0.1 mm 2 mps 620 mmHg 95%
    22:00 -1°C° 0 mm 2 mps 620 mmHg 95%
    23:00 -1°C° 0 mm 2 mps 620 mmHg 95%

    25 November, Monday

    Time Temperature Precipitation Wind Pressure Humidity
    00:00 +1°C° 0 mm 1 mps 620 mmHg 94%
    01:00 0°C° 0 mm 1 mps 620 mmHg 92%
    02:00 0°C° 0 mm 1 mps 620 mmHg 89%
    03:00 0°C° 0 mm 1 mps 620 mmHg 87%
    04:00 -2°C° 0 mm 2 mps 620 mmHg 84%
    05:00 -2°C° 0 mm 2 mps 620 mmHg 82%
    06:00 -2°C° 0 mm 2 mps 620 mmHg 80%
    07:00 -1°C° 0 mm 2 mps 621 mmHg 81%
    08:00 +2°C° 0 mm 2 mps 622 mmHg 82%
    09:00 +3°C° 0 mm 2 mps 622 mmHg 83%
    10:00 +5°C° 0 mm 1 mps 623 mmHg 83%
    11:00 +6°C° 0 mm 1 mps 623 mmHg 84%
    12:00 +6°C° 0 mm 1 mps 623 mmHg 84%
    13:00 +6°C° 0 mm 1 mps 623 mmHg 85%
    14:00 +6°C° 0 mm 1 mps 623 mmHg 86%
    15:00 +5°C° 0 mm 1 mps 622 mmHg 87%
    16:00 +4°C° 0 mm 2 mps 622 mmHg 88%
    17:00 +3°C° 0 mm 2 mps 622 mmHg 90%
    18:00 +2°C° 0 mm 2 mps 622 mmHg 91%
    19:00 +2°C° 0 mm 2 mps 622 mmHg 91%
    20:00 +2°C° 0 mm 2 mps 622 mmHg 92%
    21:00 +2°C° 0 mm 2 mps 623 mmHg 92%
    22:00 +2°C° 0 mm 2 mps 622 mmHg 91%
    23:00 +2°C° 0 mm 2 mps 622 mmHg 91%
    Show more